LX1CU-13 Weather Reports


time (UTC)temp
C
wind
direction
speed
KPH
gust
KPH
rain 1hr
cm
rain 24hr
cm
rain mn
cm
humidity
%
barometer
mb
20260502231840 11 270 0.0 0.0 0.00 0.00 0.00 81 1011.0
20260502231340 11 270 0.0 0.0 0.00 0.00 0.00 81 1011.1
20260502230840 11 270 0.0 0.0 0.00 0.00 0.00 81 1011.1
20260502230340 11 270 0.0 0.0 0.00 0.00 0.00 81 1011.1
20260502225840 11 270 0.0 0.0 0.00 0.00 0.00 81 1011.1
20260502225340 11 270 0.0 0.0 0.00 0.00 0.00 81 1011.1
20260502224840 11 270 0.0 0.0 0.00 0.00 0.00 81 1011.2
20260502224340 11 270 0.0 0.0 0.00 0.00 0.00 81 1011.2
20260502223840 11 270 0.0 0.0 0.00 0.00 0.00 81 1011.2
20260502223340 11 270 0.0 0.0 0.00 0.00 0.00 81 1011.2
20260502222840 11 270 0.0 0.0 0.00 0.00 0.00 81 1011.3
20260502222340 11 270 0.0 0.0 0.00 0.00 0.00 81 1011.3
20260502221840 11 270 0.0 0.0 0.00 0.00 0.00 81 1011.3
20260502221340 11 270 0.0 0.0 0.00 0.00 0.00 81 1011.2
20260502220840 11 270 0.0 0.0 0.00 0.00 0.00 81 1011.3
20260502220340 11 270 0.0 0.0 0.00 0.00 0.00 80 1011.3
20260502215840 11 270 0.0 0.0 0.00 0.00 0.00 80 1011.2
20260502215340 11 270 0.0 0.0 0.00 0.00 0.00 80 1011.3
20260502214840 11 270 0.0 0.0 0.00 0.00 0.00 80 1011.2
20260502214340 11 270 0.0 0.0 0.00 0.00 0.00 80 1011.2
20260502213840 11 270 0.0 0.0 0.00 0.00 0.00 80 1011.2
20260502213340 11 270 0.0 0.0 0.00 0.00 0.00 80 1011.3
20260502212840 11 270 0.0 0.0 0.00 0.00 0.00 79 1011.2
20260502212340 11 270 0.0 0.0 0.00 0.00 0.00 79 1011.3
20260502211840 11 270 0.0 0.0 0.00 0.00 0.00 79 1011.4
20260502211340 11 270 0.0 0.0 0.00 0.00 0.00 79 1011.3
20260502210840 11 270 0.0 0.0 0.00 0.00 0.00 79 1011.4
20260502210340 11 270 0.0 0.0 0.00 0.00 0.00 79 1011.3
20260502205840 12 270 0.0 0.0 0.00 0.00 0.00 79 1011.5
20260502205340 12 270 0.0 0.0 0.00 0.00 0.00 78 1011.3
20260502204840 12 270 0.0 0.0 0.00 0.00 0.00 78 1011.3
20260502204340 12 270 0.0 0.0 0.00 0.00 0.00 77 1011.4
20260502203840 12 270 0.0 0.0 0.00 0.00 0.00 77 1011.4
20260502203340 12 270 0.0 0.0 0.00 0.00 0.00 77 1011.4
20260502202840 12 270 0.0 0.0 0.00 0.00 0.00 76 1011.4
20260502202340 12 270 0.0 0.0 0.00 0.00 0.00 76 1011.3
20260502201840 12 270 0.0 0.0 0.00 0.00 0.00 75 1011.4
20260502201340 12 270 0.0 0.0 0.00 0.00 0.00 75 1011.4
20260502200840 13 270 0.0 0.0 0.00 0.00 0.00 75 1011.4
20260502200340 13 270 0.0 0.0 0.00 0.00 0.00 75 1011.4
20260502195840 13 270 0.0 0.0 0.00 0.00 0.00 75 1011.3
20260502195340 13 270 0.0 0.0 0.00 0.00 0.00 74 1011.3
20260502194840 13 270 0.0 0.0 0.00 0.00 0.00 74 1011.4
20260502194340 14 270 0.0 0.0 0.00 0.00 0.00 73 1011.4
20260502193840 14 270 0.0 0.0 0.00 0.00 0.00 72 1011.3
20260502193340 14 270 0.0 0.0 0.00 0.00 0.00 72 1011.4
20260502192840 15 270 0.0 0.0 0.00 0.00 0.00 72 1011.3
20260502192340 15 270 0.0 0.0 0.00 0.00 0.00 71 1011.2
20260502191840 15 270 0.0 0.0 0.00 0.00 0.00 71 1011.3
20260502191340 15 270 0.0 0.0 0.00 0.00 0.00 70 1011.2
20260502190840 15 270 0.0 0.0 0.00 0.00 0.00 70 1011.2
20260502190340 16 270 0.0 0.0 0.00 0.00 0.00 69 1011.1
20260502185840 16 270 0.0 0.0 0.00 0.00 0.00 68 1011.1
20260502185340 16 270 0.0 0.0 0.00 0.00 0.00 68 1011.1
20260502184840 16 270 0.0 0.0 0.00 0.00 0.00 67 1011.1
20260502184340 17 270 0.0 0.0 0.00 0.00 0.00 66 1011.1
20260502183841 17 270 0.0 0.0 0.00 0.00 0.00 66 1011.1
20260502183340 17 270 0.0 0.0 0.00 0.00 0.00 66 1011.0
20260502182840 17 270 0.0 0.0 0.00 0.00 0.00 65 1011.0
20260502182340 17 270 0.0 0.0 0.00 0.00 0.00 65 1011.2
20260502181840 17 247 0.0 0.0 0.00 0.00 0.00 64 1011.1
20260502181340 18 247 0.0 0.0 0.00 0.00 0.00 64 1011.0
20260502180840 18 247 0.0 0.0 0.00 0.00 0.00 63 1011.0
20260502180340 18 247 0.0 0.0 0.00 0.00 0.00 63 1011.1
20260502170340 21 135 0.0 0.0 0.00 0.00 0.00 58 1011.3
20260502164340 22 135 0.0 0.0 0.00 0.00 0.00 54 1011.3
20260502163840 22 135 0.0 0.0 0.00 0.00 0.00 53 1011.3
20260502163340 22 90 0.0 0.0 0.00 0.00 0.00 53 1011.4
20260502162840 23 90 0.0 0.0 0.00 0.00 0.00 51 1011.5
20260502162340 23 90 0.0 0.0 0.00 0.00 0.00 47 1011.4
20260502161840 23 90 0.0 0.0 0.00 0.00 0.00 47 1011.5
20260502161340 23 90 0.0 0.0 0.00 0.00 0.00 47 1011.6
20260502160840 23 90 0.0 0.0 0.00 0.00 0.00 47 1011.7
20260502160340 23 90 0.0 0.0 0.00 0.00 0.00 47 1011.7
20260502152341 23 90 0.0 0.0 0.00 0.00 0.00 46 1012.1
20260502151841 24 90 0.0 0.0 0.00 0.00 0.00 46 1012.1
20260502151341 24 90 0.0 0.0 0.00 0.00 0.00 46 1012.1
20260502150841 24 90 0.0 0.0 0.00 0.00 0.00 45 1012.2
20260502150341 25 90 0.0 0.0 0.00 0.00 0.00 45 1012.3
20260502130341 29 90 0.0 0.0 0.00 0.00 0.00 38 1014.2
20260502123341 32 180 0.0 0.0 0.00 0.00 0.00 36 1014.3
20260502122841 31 157 0.0 0.0 0.00 0.00 0.00 37 1014.4
20260502122341 30 157 0.0 0.0 0.00 0.00 0.00 37 1014.5
20260502121841 30 157 0.0 0.0 0.00 0.00 0.00 38 1014.7
20260502121341 28 135 0.0 0.0 0.00 0.00 0.00 38 1014.8
20260502120841 28 67 0.0 0.0 0.00 0.00 0.00 37 1015.0
20260502120341 30 90 0.0 0.0 0.00 0.00 0.00 36 1015.0
20260502115841 30 90 0.0 0.0 0.00 0.00 0.00 37 1015.1
20260502115341 29 112 0.0 0.0 0.00 0.00 0.00 38 1014.9
20260502114841 27 90 0.0 0.0 0.00 0.00 0.00 38 1014.9
20260502114341 27 90 0.0 0.0 0.00 0.00 0.00 38 1015.2
20260502113841 28 135 0.0 0.0 0.00 0.00 0.00 36 1015.3
20260502113341 30 112 0.0 0.0 0.00 0.00 0.00 36 1015.3
20260502112841 30 90 0.0 0.0 0.00 0.00 0.00 36 1015.3
20260502112341 30 90 0.0 0.0 0.00 0.00 0.00 36 1015.5
20260502111841 30 112 0.0 0.0 0.00 0.00 0.00 36 1015.5
20260502111341 30 247 0.0 0.0 0.00 0.00 0.00 37 1015.5
20260502110841 28 90 0.0 0.0 0.00 0.00 0.00 36 1015.6
20260502110341 30 90 0.0 0.0 0.00 0.00 0.00 35 1015.7
20260502105841 30 247 0.0 0.0 0.00 0.00 0.00 36 1015.5
20260502105341 30 90 0.0 0.0 0.00 0.00 0.00 36 1015.7
20260502104841 30 180 0.0 0.0 0.00 0.00 0.00 37 1015.6
20260502104341 30 157 0.0 0.0 0.00 0.00 0.00 36 1015.7
20260502103841 30 247 0.0 0.0 0.00 0.00 0.00 36 1015.7
20260502103341 30 202 0.0 0.0 0.00 0.00 0.00 37 1015.9
20260502102841 30 135 0.0 0.0 0.00 0.00 0.00 38 1015.9
20260502102341 30 90 0.0 0.0 0.00 0.00 0.00 37 1016.0
20260502101841 29 90 0.0 0.0 0.00 0.00 0.00 37 1016.1
20260502101341 29 90 0.0 0.0 0.00 0.00 0.00 38 1016.1
20260502100841 29 90 0.0 0.0 0.00 0.00 0.00 38 1016.2
20260502100341 28 90 0.0 0.0 0.00 0.00 0.00 38 1016.2
20260502091341 30 90 0.0 0.0 0.00 0.00 0.00 36 1016.6
20260502090841 30 90 0.0 0.0 0.00 0.00 0.00 37 1016.6
20260502090341 28 90 0.0 0.0 0.00 0.00 0.00 38 1016.6
20260502071341 13 22 0.0 0.0 0.00 0.00 0.00 66 1017.3
20260502070841 13 22 0.0 0.0 0.00 0.00 0.00 67 1017.5
20260502070341 13 22 0.0 0.0 0.00 0.00 0.00 68 1017.6
20260502065841 12 22 0.0 0.0 0.00 0.00 0.00 69 1017.5
20260502065341 12 22 0.0 0.0 0.00 0.00 0.00 69 1017.3
20260502064842 12 22 0.0 0.0 0.00 0.00 0.00 69 1017.3
20260502064342 11 22 0.0 0.0 0.00 0.00 0.00 71 1017.2
20260502063842 11 22 0.0 0.0 0.00 0.00 0.00 71 1017.0
20260502063342 11 22 0.0 0.0 0.00 0.00 0.00 71 1017.0
20260502062842 10 22 0.0 0.0 0.00 0.00 0.00 72 1017.0
20260502062342 10 22 0.0 0.0 0.00 0.00 0.00 72 1016.9
20260502061842 10 22 0.0 0.0 0.00 0.00 0.00 71 1017.0
20260502061342 10 22 0.0 0.0 0.00 0.00 0.00 72 1017.0
20260502060842 10 22 0.0 0.0 0.00 0.00 0.00 72 1017.3
20260502060342 10 22 0.0 0.0 0.00 0.00 0.00 72 1017.5
20260502055842 9 22 0.0 0.0 0.00 0.00 0.00 72 1017.5
20260502055342 9 22 0.0 0.0 0.00 0.00 0.00 72 1017.5
20260502054842 9 22 0.0 0.0 0.00 0.00 0.00 72 1017.5
20260502054342 9 22 0.0 0.0 0.00 0.00 0.00 72 1017.7
20260502053842 9 22 0.0 0.0 0.00 0.00 0.00 73 1017.6
20260502053342 9 22 0.0 0.0 0.00 0.00 0.00 73 1017.9
20260502052842 8 22 0.0 0.0 0.00 0.00 0.00 74 1017.9
20260502052342 8 22 0.0 0.0 0.00 0.00 0.00 74 1017.9
20260502051842 8 22 0.0 0.0 0.00 0.00 0.00 74 1017.9
20260502051342 8 22 0.0 0.0 0.00 0.00 0.00 74 1017.9
20260502050842 8 292 0.0 0.0 0.00 0.00 0.00 74 1017.9
20260502050342 7 292 0.0 0.0 0.00 0.00 0.00 75 1017.9
20260502045842 7 292 0.0 0.0 0.00 0.00 0.00 75 1017.8
20260502045342 7 292 0.0 0.0 0.00 0.00 0.00 75 1017.6
20260502044842 7 292 0.0 0.0 0.00 0.00 0.00 75 1017.5
20260502044342 7 292 0.0 0.0 0.00 0.00 0.00 75 1017.4
20260502043842 6 292 0.0 0.0 0.00 0.00 0.00 76 1017.4
20260502043342 6 292 0.0 0.0 0.00 0.00 0.00 76 1017.4
20260502042842 6 292 0.0 0.0 0.00 0.00 0.00 76 1017.3
20260502042342 6 292 0.0 0.0 0.00 0.00 0.00 76 1017.3
20260502041842 5 292 0.0 0.0 0.00 0.00 0.00 76 1017.3
20260502041342 5 292 0.0 0.0 0.00 0.00 0.00 76 1017.1
20260502040842 5 292 0.0 0.0 0.00 0.00 0.00 76 1017.2
20260502040342 5 292 0.0 0.0 0.00 0.00 0.00 76 1017.4
20260502035842 5 292 0.0 0.0 0.00 0.00 0.00 76 1017.4
20260502035342 5 292 0.0 0.0 0.00 0.00 0.00 76 1017.3
20260502034842 5 292 0.0 0.0 0.00 0.00 0.00 76 1017.3
20260502034342 5 292 0.0 0.0 0.00 0.00 0.00 76 1017.4
20260502033842 5 292 0.0 0.0 0.00 0.00 0.00 76 1017.4
20260502033342 5 292 0.0 0.0 0.00 0.00 0.00 76 1017.4
20260502032842 5 315 0.0 0.0 0.00 0.00 0.00 76 1017.4
20260502032342 5 315 0.0 0.0 0.00 0.00 0.00 75 1017.5
20260502031842 5 315 0.0 0.0 0.00 0.00 0.00 76 1017.5
20260502031342 5 315 0.0 0.0 0.00 0.00 0.00 76 1017.6
20260502030842 5 315 0.0 0.0 0.00 0.00 0.00 76 1017.6
20260502030342 5 292 0.0 0.0 0.00 0.00 0.00 76 1017.9
20260502025842 5 292 0.0 0.0 0.00 0.00 0.00 76 1018.1
20260502025342 5 292 0.0 0.0 0.00 0.00 0.00 75 1018.1
20260502024842 5 292 0.0 0.0 0.00 0.00 0.00 75 1017.9
20260502024342 5 90 0.0 0.0 0.00 0.00 0.00 74 1018.1
20260502023842 5 90 0.0 0.0 0.00 0.00 0.00 74 1017.6
20260502023342 5 90 0.0 0.0 0.00 0.00 0.00 74 1017.6
20260502022842 5 90 0.0 0.0 0.00 0.00 0.00 74 1017.6
20260502022342 5 90 0.0 0.0 0.00 0.00 0.00 74 1017.7
20260502021842 5 90 0.0 0.0 0.00 0.00 0.00 74 1017.6
20260502021342 5 90 0.0 0.0 0.00 0.00 0.00 74 1017.5
20260502020842 5 90 0.0 0.0 0.00 0.00 0.00 74 1017.6
20260502020342 5 90 0.0 0.0 0.00 0.00 0.00 73 1017.7
20260502015842 5 90 0.0 0.0 0.00 0.00 0.00 73 1017.8
20260502015342 5 90 0.0 0.0 0.00 0.00 0.00 73 1017.6
20260502014842 5 90 0.0 0.0 0.00 0.00 0.00 73 1017.7
20260502014342 5 90 0.0 0.0 0.00 0.00 0.00 73 1017.8
20260502013842 5 90 0.0 0.0 0.00 0.00 0.00 73 1017.9
20260502013342 5 90 0.0 0.0 0.00 0.00 0.00 73 1017.8
20260502012842 5 90 0.0 0.0 0.00 0.00 0.00 72 1017.9
20260502012342 5 90 0.0 0.0 0.00 0.00 0.00 73 1017.9
20260502011842 5 90 0.0 0.0 0.00 0.00 0.00 73 1017.9
20260502011342 5 90 0.0 0.0 0.00 0.00 0.00 73 1017.9
20260502010842 5 90 0.0 0.0 0.00 0.00 0.00 72 1017.9
20260502010342 5 90 0.0 0.0 0.00 0.00 0.00 71 1017.8
20260502005842 5 90 0.0 0.0 0.00 0.00 0.00 71 1017.7
20260502005342 5 90 0.0 0.0 0.00 0.00 0.00 71 1018.0
20260502004842 5 90 0.0 0.0 0.00 0.00 0.00 71 1018.1
20260502004342 5 90 0.0 0.0 0.00 0.00 0.00 71 1018.1
20260502003842 5 90 0.0 0.0 0.00 0.00 0.00 71 1018.2
20260502003342 5 90 0.0 0.0 0.00 0.00 0.00 71 1018.3
20260502002842 5 90 0.0 0.0 0.00 0.00 0.00 71 1018.3
20260502002342 5 90 0.0 0.0 0.00 0.00 0.00 70 1018.3
20260502001842 5 90 0.0 0.0 0.00 0.00 0.00 69 1018.3
20260502001342 5 90 0.0 0.0 0.00 0.00 0.00 69 1018.3
20260502000842 5 90 0.0 0.0 0.00 0.00 0.00 69 1018.2
20260502000342 5 90 0.0 0.0 0.00 0.00 0.00 69 1018.2
20260501235842 5 90 0.0 0.0 0.00 0.00 0.00 69 1018.3
20260501235342 5 90 0.0 0.0 0.00 0.00 0.00 69 1018.3
20260501234842 5 90 0.0 0.0 0.00 0.00 0.00 70 1018.3
20260501234342 5 90 0.0 0.0 0.00 0.00 0.00 69 1018.3
20260501233842 5 90 0.0 0.0 0.00 0.00 0.00 68 1018.3
20260501233342 5 90 0.0 0.0 0.00 0.00 0.00 68 1018.3
20260501232842 5 90 0.0 0.0 0.00 0.00 0.00 67 1018.3
20260501232342 5 90 0.0 0.0 0.00 0.00 0.00 66 1018.4